Main page
METAR-TAF:

METAR-TAF

Airports :

Pontoise – Cormeilles Aerodrome

Pontoise, France

latitude: 49-05-48N, longitude: 002-02-27E, elevation: 99 m

Current weather observation

The report was made 45 minutes ago, at 01:00 UTC
Wind 2 kt from the South/Southeast
Temperature 8°C
Humidity 87%
Pressure 1024 hPa
Visibility 10 km or more
Overcast at a height of 2200 ft

METAR: LFPT 210100Z AUTO 16002KT 9999 OVC022 08/06 Q1024

Time: 02:45 (01:45 UTC)


TAF: missing

Weather observations and forecasts of more than 4000 airports (METAR and TAF reports).

The available stations are represented by yellow and red dots on the map.

Hover mouse over dot to see the name of the station.

Then click to see weather observations and forecasts.

To change the map : click on the green buttons with a black cross to zoom in, on the green button with a dash to zoom out, or on the green arrows for adjacent maps.


METAR-TAF: